FW1394 Weather Reports


Display with metric or nautical units.
time (UTC)temp
F
wind
direction
speed
MPH
gust
MPH
rain 1hr
in
rain 24hr
in
rain mn
in
humidity
%
barometer
mb
20260510221041 74 0 0.0 0.0 0.00 0.00 0.00 44 1019.0
20260510220542 74 0 0.0 0.0 0.00 0.00 0.00 45 1019.0
20260510220053 74 0 0.0 0.0 0.00 0.00 0.00 44 1019.0
20260510215541 73 0 0.0 0.0 0.00 0.00 0.00 45 1018.8
20260510215041 73 0 0.0 0.0 0.00 0.00 0.00 46 1018.8
20260510214552 73 0 0.0 0.0 0.00 0.00 0.00 45 1018.7
20260510214042 73 0 0.0 0.0 0.00 0.00 0.00 45 1018.9
20260510213542 73 0 0.0 0.0 0.00 0.00 0.00 45 1018.9
20260510213055 73 0 0.0 0.0 0.00 0.00 0.00 46 1018.6
20260510212541 72 0 0.0 0.0 0.00 0.00 0.00 47 1018.7
20260510212040 72 0 0.0 0.0 0.00 0.00 0.00 48 1018.8
20260510211551 72 0 0.0 0.0 0.00 0.00 0.00 47 1018.8
20260510211041 72 0 0.0 0.0 0.00 0.00 0.00 48 1018.7
20260510210541 71 0 0.0 0.0 0.00 0.00 0.00 47 1018.6
20260510210053 71 0 0.0 0.0 0.00 0.00 0.00 48 1018.6
20260510205542 71 0 0.0 0.0 0.00 0.00 0.00 50 1018.5
20260510205042 71 0 0.0 0.0 0.00 0.00 0.00 48 1018.8
20260510204558 71 0 0.0 0.0 0.00 0.00 0.00 50 1018.4
20260510204041 72 0 0.0 0.0 0.00 0.00 0.00 47 1018.4
20260510203541 72 0 0.0 0.0 0.00 0.00 0.00 47 1018.4
20260510203048 73 0 0.0 0.0 0.00 0.00 0.00 46 1018.5
20260510202543 73 0 0.0 0.0 0.00 0.00 0.00 48 1018.4
20260510202041 73 0 0.0 0.0 0.00 0.00 0.00 47 1018.3
20260510201554 73 0 0.0 0.0 0.00 0.00 0.00 49 1018.4
20260510201041 73 0 0.0 0.0 0.00 0.00 0.00 47 1018.3
20260510200541 73 0 0.0 0.0 0.00 0.00 0.00 48 1018.4
20260510200054 72 0 0.0 0.0 0.00 0.00 0.00 50 1018.5
20260510195541 71 0 0.0 0.0 0.00 0.00 0.00 51 1018.4
20260510195041 71 0 0.0 0.0 0.00 0.00 0.00 52 1018.3
20260510194554 71 0 0.0 0.0 0.00 0.00 0.00 53 1018.3
20260510194041 70 0 0.0 0.0 0.00 0.00 0.00 51 1018.2
20260510193541 70 0 0.0 0.0 0.00 0.00 0.00 51 1018.2
20260510193055 70 0 0.0 0.0 0.00 0.00 0.00 53 1018.2
20260510192541 69 0 0.0 0.0 0.00 0.00 0.00 52 1018.2
20260510192042 69 0 0.0 0.0 0.00 0.00 0.00 55 1018.2
20260510191556 69 0 0.0 0.0 0.00 0.00 0.00 53 1018.3
20260510191042 69 0 0.0 0.0 0.00 0.00 0.00 52 1018.4
20260510190541 69 0 0.0 0.0 0.00 0.00 0.00 56 1018.2
20260510190100 69 0 0.0 0.0 0.00 0.00 0.00 58 1018.1
20260510185541 67 0 0.0 0.0 0.00 0.00 0.00 57 1018.1
20260510185042 66 0 0.0 0.0 0.00 0.00 0.00 60 1018.0
20260510184619 66 0 0.0 0.0 0.00 0.00 0.00 59 1018.0
20260510184046 65 0 0.0 0.0 0.00 0.00 0.00 59 1017.9
20260510183541 66 0 0.0 0.0 0.00 0.00 0.00 58 1018.0
20260510183047 66 0 0.0 0.0 0.00 0.00 0.00 57 1017.9
20260510182542 66 0 0.0 0.0 0.00 0.00 0.00 57 1017.8
20260510182041 66 0 0.0 0.0 0.00 0.00 0.00 60 1017.8
20260510181558 65 0 0.0 0.0 0.00 0.00 0.00 60 1017.7
20260510181041 65 0 0.0 0.0 0.00 0.00 0.00 63 1017.8
20260510180541 64 0 0.0 0.0 0.00 0.00 0.00 64 1017.8
20260510180105 63 0 0.0 0.0 0.00 0.00 0.00 65 1017.7
20260510175541 63 0 0.0 0.0 0.00 0.00 0.00 65 1017.6
20260510175041 63 0 0.0 0.0 0.00 0.00 0.00 61 1017.7
20260510174547 64 0 0.0 0.0 0.00 0.00 0.00 61 1017.6
20260510174042 65 0 0.0 0.0 0.00 0.00 0.00 61 1017.6
20260510173542 64 0 0.0 0.0 0.00 0.00 0.00 61 1017.6
20260510173053 64 0 0.0 0.0 0.00 0.00 0.00 66 1017.6
20260510172541 63 0 0.0 0.0 0.00 0.00 0.00 66 1017.6
20260510172041 62 0 0.0 0.0 0.00 0.00 0.00 69 1017.3
20260510171602 61 0 0.0 0.0 0.00 0.00 0.00 68 1017.4
20260510171045 61 0 0.0 0.0 0.00 0.00 0.00 68 1017.4
20260510170543 60 0 0.0 0.0 0.00 0.00 0.00 71 1017.4
20260510170052 59 0 0.0 0.0 0.00 0.00 0.00 75 1017.4
20260510165541 58 0 0.0 0.0 0.00 0.00 0.00 75 1017.2
20260510165042 57 0 0.0 0.0 0.00 0.00 0.00 76 1017.2
20260510164552 57 0 0.0 0.0 0.00 0.00 0.00 78 1017.2
20260510164040 56 0 0.0 0.0 0.00 0.00 0.00 77 1017.0
20260510163542 56 0 0.0 0.0 0.00 0.00 0.00 77 1017.3
20260510163048 56 0 0.0 0.0 0.00 0.00 0.00 77 1017.4
20260510162541 56 0 0.0 0.0 0.00 0.00 0.00 77 1017.3
20260510162041 56 0 0.0 0.0 0.00 0.00 0.00 78 1017.1
20260510161551 56 0 0.0 0.0 0.00 0.00 0.00 79 1017.0
20260510161041 56 0 0.0 0.0 0.00 0.00 0.00 79 1017.0
20260510160541 56 0 0.0 0.0 0.00 0.00 0.00 80 1016.8
20260510155541 55 0 0.0 0.0 0.00 0.00 0.00 80 1016.9
20260510155041 55 0 0.0 0.0 0.00 0.00 0.00 81 1016.9
20260510154609 55 0 0.0 0.0 0.00 0.00 0.00 82 1016.9
20260510154041 54 0 0.0 0.0 0.00 0.00 0.00 83 1016.8
20260510153541 54 0 0.0 0.0 0.00 0.00 0.00 82 1016.8
20260510153100 54 0 0.0 0.0 0.00 0.00 0.00 83 1016.8
20260510152541 54 0 0.0 0.0 0.00 0.00 0.00 83 1016.7
20260510152043 54 0 0.0 0.0 0.00 0.00 0.00 84 1016.5
20260510151551 53 0 0.0 0.0 0.00 0.00 0.00 86 1016.5
20260510151042 53 0 0.0 0.0 0.00 0.00 0.00 86 1016.7
20260510150542 52 0 0.0 0.0 0.00 0.00 0.00 87 1017.1
20260510150115 52 0 0.0 0.0 0.00 0.00 0.00 88 1017.1
20260510145538 52 0 0.0 0.0 0.00 0.00 0.00 88 1016.9
20260510145041 52 0 0.0 0.0 0.00 0.00 0.00 88 1016.5
20260510144609 51 0 0.0 0.0 0.00 0.00 0.00 88 1016.5
20260510144042 51 0 0.0 0.0 0.00 0.00 0.00 89 1016.7
20260510143541 51 0 0.0 0.0 0.00 0.00 0.00 89 1016.8
20260510143053 51 0 0.0 0.0 0.00 0.00 0.00 90 1016.9
20260510142541 51 0 0.0 0.0 0.00 0.00 0.00 90 1017.0
20260510142041 51 0 0.0 0.0 0.00 0.00 0.00 90 1016.8
20260510141551 50 0 0.0 0.0 0.00 0.00 0.00 90 1016.9
20260510141038 50 0 0.0 0.0 0.00 0.00 0.00 91 1016.9
20260510140541 50 0 0.0 0.0 0.00 0.00 0.00 91 1016.8
20260510140052 50 0 0.0 0.0 0.00 0.00 0.00 91 1017.0
20260510135539 50 0 0.0 0.0 0.00 0.00 0.00 91 1016.6
20260510135042 50 0 0.0 0.0 0.00 0.00 0.00 91 1016.5
20260510134552 49 0 0.0 0.0 0.00 0.00 0.00 92 1016.5
20260510134041 49 0 0.0 0.0 0.00 0.00 0.00 92 1016.4
20260510133542 49 0 0.0 0.0 0.00 0.00 0.00 92 1016.3
20260510133044 49 0 0.0 0.0 0.00 0.00 0.00 92 1016.6
20260510132541 49 0 0.0 0.0 0.00 0.00 0.00 92 1016.5
20260510132042 49 0 0.0 0.0 0.00 0.00 0.00 92 1016.5
20260510131553 49 0 0.0 0.0 0.00 0.00 0.00 92 1016.3
20260510131041 48 0 0.0 0.0 0.00 0.00 0.00 92 1016.5
20260510130543 48 0 0.0 0.0 0.00 0.00 0.00 91 1016.4
20260510130052 48 0 0.0 0.0 0.00 0.00 0.00 91 1016.3
20260510125542 48 0 0.0 0.0 0.00 0.00 0.00 91 1016.4
20260510125042 48 0 0.0 0.0 0.00 0.00 0.00 91 1016.2
20260510124548 48 0 0.0 0.0 0.00 0.00 0.00 91 1016.3
20260510124041 48 0 0.0 0.0 0.00 0.00 0.00 91 1016.1
20260510123541 48 0 0.0 0.0 0.00 0.00 0.00 91 1016.0
20260510123056 48 0 0.0 0.0 0.00 0.00 0.00 91 1016.0
20260510122540 48 0 0.0 0.0 0.00 0.00 0.00 91 1016.1
20260510122041 48 0 0.0 0.0 0.00 0.00 0.00 91 1016.1
20260510121557 48 0 0.0 0.0 0.00 0.00 0.00 91 1016.2
20260510121047 48 0 0.0 0.0 0.00 0.00 0.00 91 1016.2
20260510120541 48 0 0.0 0.0 0.00 0.00 0.00 91 1016.3
20260510120054 48 0 0.0 0.0 0.00 0.00 0.00 91 1016.3
20260510115541 48 0 0.0 0.0 0.00 0.00 0.00 90 1016.2
20260510115041 48 0 0.0 0.0 0.00 0.00 0.00 90 1016.2
20260510114555 49 0 0.0 0.0 0.00 0.00 0.00 90 1016.2
20260510114042 48 0 0.0 0.0 0.00 0.00 0.00 90 1016.1
20260510113541 49 0 0.0 0.0 0.00 0.00 0.00 90 1016.1
20260510113051 49 0 0.0 0.0 0.00 0.00 0.00 90 1015.9
20260510112541 49 0 0.0 0.0 0.00 0.00 0.00 89 1015.8
20260510112041 49 0 0.0 0.0 0.00 0.00 0.00 89 1015.8
20260510111551 49 0 0.0 0.0 0.00 0.00 0.00 89 1015.9
20260510111041 49 0 0.0 0.0 0.00 0.00 0.00 89 1016.0
20260510110545 49 0 0.0 0.0 0.00 0.00 0.00 89 1016.0
20260510110051 49 0 0.0 0.0 0.00 0.00 0.00 88 1015.9
20260510105542 49 0 0.0 0.0 0.00 0.00 0.00 88 1015.9
20260510105042 49 0 0.0 0.0 0.00 0.00 0.00 88 1015.9
20260510104559 49 0 0.0 0.0 0.00 0.00 0.00 88 1015.9
20260510104041 49 0 0.0 0.0 0.00 0.00 0.00 88 1015.7
20260510103541 49 0 0.0 0.0 0.00 0.00 0.00 88 1015.8
20260510103052 49 0 0.0 0.0 0.00 0.00 0.00 88 1015.7
20260510102541 50 0 0.0 0.0 0.00 0.00 0.00 88 1015.8
20260510102041 50 0 0.0 0.0 0.00 0.00 0.00 88 1015.9
20260510101550 50 0 0.0 0.0 0.00 0.00 0.00 88 1015.9
20260510101041 50 0 0.0 0.0 0.00 0.00 0.00 88 1015.8
20260510100542 50 0 0.0 0.0 0.00 0.00 0.00 88 1015.9
20260510100054 50 0 0.0 0.0 0.00 0.00 0.00 88 1015.8
20260510095543 50 0 0.0 0.0 0.00 0.00 0.00 88 1015.8
20260510095040 50 0 0.0 0.0 0.00 0.00 0.00 88 1015.8
20260510094553 50 0 0.0 0.0 0.00 0.00 0.00 88 1015.8
20260510094041 50 0 0.0 0.0 0.00 0.00 0.00 87 1015.8
20260510093541 50 0 0.0 0.0 0.00 0.00 0.00 87 1015.8
20260510093052 50 0 0.0 0.0 0.00 0.00 0.00 87 1015.9
20260510092542 50 0 0.0 0.0 0.00 0.00 0.00 87 1015.9
20260510092042 50 0 0.0 0.0 0.00 0.00 0.00 87 1015.8
20260510091550 51 0 0.0 0.0 0.00 0.00 0.00 87 1015.8
20260510091045 51 0 0.0 0.0 0.00 0.00 0.00 87 1015.8
20260510090546 51 0 0.0 0.0 0.00 0.00 0.00 87 1015.8
20260510090115 51 0 0.0 0.0 0.00 0.00 0.00 87 1015.8
20260510085541 51 0 0.0 0.0 0.00 0.00 0.00 86 1015.7
20260510085041 51 0 0.0 0.0 0.00 0.00 0.00 86 1015.7
20260510084559 51 0 0.0 0.0 0.00 0.00 0.00 86 1015.8
20260510084041 51 0 0.0 0.0 0.00 0.00 0.00 85 1015.8
20260510083541 51 0 0.0 0.0 0.00 0.00 0.00 85 1015.8
20260510083112 51 0 0.0 0.0 0.00 0.00 0.00 84 1015.7
20260510082541 51 0 0.0 0.0 0.00 0.00 0.00 84 1015.7
20260510082041 51 0 0.0 0.0 0.00 0.00 0.00 83 1015.6
20260510081604 51 0 0.0 0.0 0.00 0.00 0.00 83 1015.7
20260510081041 51 0 0.0 0.0 0.00 0.00 0.00 82 1015.7
20260510080540 51 0 0.0 0.0 0.00 0.00 0.00 81 1015.7
20260510080049 52 0 0.0 0.0 0.00 0.00 0.00 81 1015.6
20260510075542 52 0 0.0 0.0 0.00 0.00 0.00 81 1015.7
20260510075042 52 0 0.0 0.0 0.00 0.00 0.00 81 1015.6
20260510074552 52 0 0.0 0.0 0.00 0.00 0.00 81 1015.6
20260510074044 52 0 0.0 0.0 0.00 0.00 0.00 81 1015.6
20260510073541 52 0 0.0 0.0 0.00 0.00 0.00 80 1015.5
20260510073051 52 0 0.0 0.0 0.00 0.00 0.00 80 1015.5
20260510072541 52 0 0.0 0.0 0.00 0.00 0.00 80 1015.6
20260510072041 52 0 0.0 0.0 0.00 0.00 0.00 80 1015.6
20260510071552 52 0 0.0 0.0 0.00 0.00 0.00 79 1015.6
20260510071041 52 0 0.0 0.0 0.00 0.00 0.00 79 1015.7
20260510070541 52 0 0.0 0.0 0.00 0.00 0.00 79 1015.7
20260510070050 52 0 0.0 0.0 0.00 0.00 0.00 79 1015.6
20260510065541 52 0 0.0 0.0 0.00 0.00 0.00 79 1015.6
20260510065041 52 0 0.0 0.0 0.00 0.00 0.00 79 1015.7
20260510064551 52 0 0.0 0.0 0.00 0.00 0.00 78 1015.6
20260510064041 53 0 0.0 0.0 0.00 0.00 0.00 77 1015.6
20260510063542 53 0 0.0 0.0 0.00 0.00 0.00 77 1015.7
20260510063048 53 0 0.0 0.0 0.00 0.00 0.00 77 1015.6
20260510062542 53 0 0.0 0.0 0.00 0.00 0.00 76 1015.6
20260510062044 53 0 0.0 0.0 0.00 0.00 0.00 76 1015.6
20260510061555 53 0 0.0 0.0 0.00 0.00 0.00 76 1015.6
20260510061041 53 0 0.0 0.0 0.00 0.00 0.00 75 1015.5
20260510060542 53 0 0.0 0.0 0.00 0.00 0.00 76 1015.5
20260510060054 54 0 0.0 0.0 0.00 0.00 0.00 76 1015.5
20260510055541 54 0 0.0 0.0 0.00 0.00 0.00 75 1015.5
20260510055041 54 0 0.0 0.0 0.00 0.00 0.00 75 1015.6
20260510054552 54 0 0.0 0.0 0.00 0.00 0.00 75 1015.7
20260510054041 54 0 0.0 0.0 0.00 0.00 0.00 74 1015.6
20260510053542 54 0 0.0 0.0 0.00 0.00 0.00 74 1015.6
20260510053057 54 0 0.0 0.0 0.00 0.00 0.00 74 1015.7
20260510052541 55 0 0.0 0.0 0.00 0.00 0.00 73 1015.7
20260510052041 55 0 0.0 0.0 0.00 0.00 0.00 73 1015.7
20260510051551 55 0 0.0 0.0 0.00 0.00 0.00 72 1015.7
20260510051042 56 0 0.0 0.0 0.00 0.00 0.00 71 1015.8
20260510050544 56 0 0.0 0.0 0.00 0.00 0.00 71 1015.9
20260510050053 56 0 0.0 0.0 0.00 0.00 0.00 70 1015.9
20260510045542 56 0 0.0 0.0 0.00 0.00 0.00 70 1015.9
20260510045043 56 0 0.0 0.0 0.00 0.00 0.00 70 1016.0
20260510044552 56 0 0.0 0.0 0.00 0.00 0.00 69 1016.0
20260510044041 56 0 0.0 0.0 0.00 0.00 0.00 69 1016.0
20260510043541 57 0 0.0 0.0 0.00 0.00 0.00 69 1015.9
20260510043100 57 0 0.0 0.0 0.00 0.00 0.00 69 1015.9
20260510042542 57 0 0.0 0.0 0.00 0.00 0.00 69 1016.0
20260510042045 57 0 0.0 0.0 0.00 0.00 0.00 69 1016.0
20260510041551 57 0 0.0 0.0 0.00 0.00 0.00 68 1015.9
20260510041042 57 0 0.0 0.0 0.00 0.00 0.00 68 1015.8
20260510040542 57 0 0.0 0.0 0.00 0.00 0.00 68 1015.8
20260510040106 58 0 0.0 0.0 0.00 0.00 0.00 68 1015.8
20260510035541 58 0 0.0 0.0 0.00 0.00 0.00 67 1015.8
20260510035041 58 0 0.0 0.0 0.00 0.00 0.00 67 1015.7
20260510034559 58 0 0.0 0.0 0.00 0.00 0.00 67 1015.7
20260510034042 59 0 0.0 0.0 0.00 0.00 0.00 67 1015.7
20260510033543 59 0 0.0 0.0 0.00 0.00 0.00 66 1015.7
20260510033053 59 0 0.0 0.0 0.00 0.00 0.00 65 1015.6
20260510032542 60 0 0.0 0.0 0.00 0.00 0.00 65 1015.6
20260510032041 60 0 0.0 0.0 0.00 0.00 0.00 64 1015.7
20260510031602 61 0 0.0 0.0 0.00 0.00 0.00 64 1015.6
20260510031041 61 0 0.0 0.0 0.00 0.00 0.00 63 1015.7
20260510030542 61 0 0.0 0.0 0.00 0.00 0.00 62 1015.7
20260510030058 62 0 0.0 0.0 0.00 0.00 0.00 62 1015.7
20260510025542 62 0 0.0 0.0 0.00 0.00 0.00 61 1015.8
20260510025041 62 0 0.0 0.0 0.00 0.00 0.00 61 1015.7
20260510024556 62 0 0.0 0.0 0.00 0.00 0.00 61 1015.8
20260510024041 62 0 0.0 0.0 0.00 0.00 0.00 61 1015.8
20260510023541 63 0 0.0 0.0 0.00 0.00 0.00 61 1015.8
20260510023053 63 0 0.0 0.0 0.00 0.00 0.00 60 1015.9
20260510022541 63 0 0.0 0.0 0.00 0.00 0.00 59 1016.0
20260510022041 63 0 0.0 0.0 0.00 0.00 0.00 57 1015.9
20260510021558 63 0 0.0 0.0 0.00 0.00 0.00 57 1015.9
20260510021041 64 0 0.0 0.0 0.00 0.00 0.00 56 1016.0
20260510020541 64 0 0.0 0.0 0.00 0.00 0.00 56 1016.1
20260510020100 64 0 0.0 0.0 0.00 0.00 0.00 55 1016.1
20260510015541 64 0 0.0 0.0 0.00 0.00 0.00 55 1016.0
20260510015041 64 0 0.0 0.0 0.00 0.00 0.00 56 1016.2
20260510014557 64 0 0.0 0.0 0.00 0.00 0.00 58 1016.3
20260510014041 64 0 0.0 0.0 0.00 0.00 0.00 58 1016.3
20260510013545 64 0 0.0 0.0 0.00 0.00 0.00 56 1016.4
20260510013104 65 0 0.0 0.0 0.00 0.00 0.00 58 1016.5
20260510012543 65 0 0.0 0.0 0.00 0.00 0.00 57 1016.6
20260510012042 65 0 0.0 0.0 0.00 0.00 0.00 59 1016.7
20260510011558 65 0 0.0 0.0 0.00 0.00 0.00 57 1017.0
20260510011043 65 0 0.0 0.0 0.00 0.00 0.00 58 1017.0
20260510010541 65 0 0.0 0.0 0.00 0.00 0.00 58 1017.0
20260510010056 65 0 0.0 0.0 0.00 0.00 0.00 56 1017.1
20260510005541 65 0 0.0 0.0 0.00 0.00 0.00 57 1017.2
20260510005040 65 0 0.0 0.0 0.00 0.00 0.00 56 1017.2
20260510004557 66 0 0.0 0.0 0.00 0.00 0.00 53 1017.3
20260510004040 66 0 0.0 0.0 0.00 0.00 0.00 54 1017.4
20260510003541 66 0 0.0 0.0 0.00 0.00 0.00 53 1017.3
20260510003059 67 0 0.0 0.0 0.00 0.00 0.00 52 1017.4
20260510002545 67 0 0.0 0.0 0.00 0.00 0.00 51 1017.4
20260510002041 67 0 0.0 0.0 0.00 0.00 0.00 51 1017.5
20260510001558 68 0 0.0 0.0 0.00 0.00 0.00 49 1017.6
20260510001042 68 0 0.0 0.0 0.00 0.00 0.00 49 1017.7
20260510000541 68 0 0.0 0.0 0.00 0.00 0.00 49 1017.7
20260510000051 69 0 0.0 0.0 0.00 0.00 0.00 49 1017.7
20260509235541 69 0 0.0 0.0 0.00 0.00 0.00 49 1017.7
20260509235042 69 0 0.0 0.0 0.00 0.00 0.00 49 1017.7
20260509234549 70 0 0.0 0.0 0.00 0.00 0.00 47 1017.8
20260509234041 70 0 0.0 0.0 0.00 0.00 0.00 47 1017.9
20260509233540 70 0 0.0 0.0 0.00 0.00 0.00 46 1018.0
20260509233055 71 0 0.0 0.0 0.00 0.00 0.00 47 1018.0
20260509232542 71 0 0.0 0.0 0.00 0.00 0.00 47 1018.1
20260509232041 71 0 0.0 0.0 0.00 0.00 0.00 47 1018.2
20260509231556 72 0 0.0 0.0 0.00 0.00 0.00 47 1018.4
20260509231041 72 0 0.0 0.0 0.00 0.00 0.00 47 1018.4
20260509230541 72 0 0.0 0.0 0.00 0.00 0.00 47 1018.5
20260509230047 73 0 0.0 0.0 0.00 0.00 0.00 45 1018.6
20260509225541 73 0 0.0 0.0 0.00 0.00 0.00 46 1018.8
20260509225041 73 0 0.0 0.0 0.00 0.00 0.00 46 1018.8
20260509224549 74 0 0.0 0.0 0.00 0.00 0.00 45 1019.0
20260509224042 74 0 0.0 0.0 0.00 0.00 0.00 45 1019.1
20260509223542 74 0 0.0 0.0 0.00 0.00 0.00 44 1019.2
20260509223053 74 0 0.0 0.0 0.00 0.00 0.00 44 1019.2
20260509222541 74 0 0.0 0.0 0.00 0.00 0.00 45 1019.3
20260509222041 74 0 0.0 0.0 0.00 0.00 0.00 45 1019.3
20260509221551 74 0 0.0 0.0 0.00 0.00 0.00 46 1019.4